EST,Max TemperatureF,Mean TemperatureF,Min TemperatureF,Max Dew PointF,MeanDew PointF,Min DewpointF,Max Humidity, Mean Humidity, Min Humidity, Max Sea Level PressureIn, Mean Sea Level PressureIn, Min Sea Level PressureIn, Max VisibilityMiles, Mean VisibilityMiles, Min VisibilityMiles, Max Wind SpeedMPH, Mean Wind SpeedMPH, Max Gust SpeedMPH,PrecipitationIn, CloudCover, Events, WindDirDegrees
2011-12-1,37,29,21,28,24,19,93,86,68,30.41,30.33,30.25,10,5,0,8,1,,0.00,5,Fog,213
2011-12-2,42,34,25,31,27,22,92,80,65,30.58,30.45,30.32,10,7,4,9,3,,0.00,3,,40
2011-12-3,51,38,24,33,28,21,89,74,48,30.57,30.48,30.34,10,8,4,7,2,,0.00,0,,158
2011-12-4,57,48,39,40,32,24,68,51,31,30.32,30.26,30.21,10,10,10,13,5,24,0.00,5,Rain,197
2011-12-5,52,47,42,49,45,39,94,87,68,30.22,30.10,30.00,10,5,1,20,3,25,0.81,8,Rain,169
2011-12-6,42,40,39,38,36,35,89,84,79,30.12,30.06,30.02,10,10,3,9,6,17,0.02,8,Rain,18
2011-12-7,39,34,30,36,31,21,93,82,64,30.08,29.95,29.86,10,8,2,17,5,23,0.03,8,Rain,349
2011-12-8,37,32,28,25,23,21,78,70,59,30.31,30.23,30.08,10,10,10,10,6,,0.00,5,,249
2011-12-9,42,36,30,30,26,23,81,70,49,30.35,30.27,30.21,10,9,6,12,4,16,0.00,7,,283
2011-12-10,32,26,19,23,14,10,78,59,42,30.58,30.48,30.33,10,10,10,10,6,,0.00,2,,325
2011-12-11,37,26,15,16,13,10,85,66,33,30.66,30.59,30.54,10,8,3,8,1,,0.00,0,,158
2011-12-12,42,29,16,19,16,10,84,67,37,30.53,30.48,30.44,10,10,7,6,0,,0.00,0,,-1
2011-12-13,44,32,21,31,24,17,85,71,49,30.53,30.48,30.41,10,8,3,6,1,,0.00,6,,154
2011-12-14,53,44,37,44,37,28,93,84,65,30.39,30.26,30.04,10,5,2,6,3,,0.09,7,Rain,163
2011-12-15,57,48,39,52,44,28,88,75,61,30.10,29.90,29.77,10,8,2,18,9,32,0.30,7,Rain,256
2011-12-16,39,36,33,28,23,21,67,62,57,30.34,30.26,30.10,10,10,10,14,7,24,0.00,8,,316
2011-12-17,32,30,28,27,25,18,88,79,56,30.31,30.24,30.20,10,4,0,8,4,,0.07,8,Fog-Snow,304
2011-12-18,36,32,28,27,25,23,93,77,60,30.30,30.24,30.19,10,8,3,8,2,,0.00,6,Snow,238
2011-12-19,46,39,32,37,30,25,75,66,58,30.17,30.10,30.05,10,10,10,13,6,22,0.00,6,Rain,235
2011-12-20,44,40,35,40,37,32,100,88,81,30.19,30.08,29.95,10,5,0,9,3,16,0.38,8,Fog-Rain,141
2011-12-21,60,52,43,52,44,37,93,81,60,29.99,29.84,29.64,10,7,2,17,8,26,0.57,8,Rain,219
2011-12-22,48,43,37,40,38,33,89,80,71,30.12,30.04,29.99,10,8,2,10,2,14,0.49,8,Rain,345
2011-12-23,38,35,31,34,29,20,85,74,63,30.34,30.23,30.01,10,8,1,13,6,16,0.01,8,Snow,348
2011-12-24,39,34,29,27,24,20,85,70,54,30.46,30.38,30.31,10,10,10,9,2,12,0.00,4,,219
2011-12-25,47,38,28,27,25,24,78,60,42,30.30,30.19,30.02,10,10,10,23,7,33,0.00,2,,277
2011-12-26,44,36,28,29,25,24,85,65,45,30.40,30.27,30.02,10,10,10,13,4,17,0.00,3,,225
2011-12-27,41,38,34,37,32,26,92,78,64,30.00,29.59,29.38,10,7,1,14,4,23,0.54,7,Rain,250
2011-12-28,36,29,21,31,20,14,84,67,49,30.08,29.94,29.68,10,10,7,22,9,29,T,6,,322
2011-12-29,44,32,19,29,24,16,88,71,53,30.04,29.90,29.75,10,10,10,13,6,22,0.00,5,,184
2011-12-30,53,45,37,41,35,29,83,68,53,29.90,29.79,29.67,10,10,3,20,6,29,0.19,6,Rain-Thunderstorm,199
2011-12-31,46,43,40,40,36,33,86,79,71,30.13,29.96,29.73,10,9,2,15,5,21,0.01,8,,266